Location: Çayiçi
(36.4667°N, 30.2333°E)
Time: 02:12:12
(UTC+00:00)

Lacrosse 5 rocket - Pass Details

Date: 09 February 2023
Orbit: 455 x 612 km, 57.0° (Epoch: 01 April)

Event Time Altitude Azimuth Distance (km) Brightness Sun altitude
Rises 16:59:34 0° 304° (WNW) 2,500 5.5 -17.8°
Reaches altitude 10° 17:02:01 10° 288° (WNW) 1,640 4.8 -18.3°
Maximum altitude 17:04:51 21° 237° (WSW) 1,129 3.6 -18.9°
Drops below altitude 10° 17:07:45 10° 187° (S) 1,690 3.9 -19.5°
Sets 17:10:20 0° 171° (S) 2,602 4.7 -20.0°
